When you browse on this site, cookies collect data to enhance your experience and personalize the content and advertising you see.
Visit our Privacy Policy to learn more. By continuing to use the site, you agree to this use of cookies and data.
  • în România
  • Lista ţărilor
  • Pe 7 zile
  • Temperatura apei
  • Hartă satelitară
  • Meteo pe hartă
  • Widget-uri
  • user-avatar
    Intrare

    Meteo pe oră la Grinsboro

    Astăzi, 23 Februarie, Sâmbătă

    Timp Temperatura Precipitaţii Vânt Presiune Umiditate
    00:00 +5°C° 0.2 mm 3 m/s 749 mmHg 94%
    01:00 +4°C° 0 mm 3 m/s 749 mmHg 93%
    02:00 +4°C° 0.5 mm 3 m/s 749 mmHg 93%
    03:00 +4°C° 0.5 mm 3 m/s 748 mmHg 94%
    04:00 +4°C° 0.5 mm 3 m/s 748 mmHg 94%
    05:00 +4°C° 1.8 mm 3 m/s 748 mmHg 94%
    06:00 +4°C° 1.8 mm 3 m/s 748 mmHg 94%
    07:00 +4°C° 0 mm 2 m/s 748 mmHg 93%
    08:00 +3°C° 2.4 mm 3 m/s 748 mmHg 94%
    09:00 +3°C° 2.4 mm 3 m/s 748 mmHg 94%
    10:00 +4°C° 2.4 mm 3 m/s 748 mmHg 94%
    11:00 +4°C° 2.5 mm 3 m/s 747 mmHg 95%
    12:00 +4°C° 2.5 mm 3 m/s 747 mmHg 95%
    13:00 +4°C° 2.5 mm 3 m/s 746 mmHg 95%
    14:00 +5°C° 2.4 mm 2 m/s 746 mmHg 95%
    15:00 +5°C° 2.4 mm 2 m/s 746 mmHg 95%
    16:00 +5°C° 2.4 mm 2 m/s 745 mmHg 96%
    17:00 +5°C° 0.1 mm 2 m/s 745 mmHg 96%
    18:00 +6°C° 0.1 mm 1 m/s 745 mmHg 97%
    19:00 +6°C° 0.1 mm 1 m/s 744 mmHg 97%
    20:00 +6°C° 0 mm 1 m/s 744 mmHg 97%
    21:00 +7°C° 0 mm 1 m/s 743 mmHg 97%
    22:00 +7°C° 0 mm 1 m/s 743 mmHg 97%
    23:00 +7°C° 0.1 mm 1 m/s 742 mmHg 97%

    Mâine, 24 Februarie, Duminică

    Timp Temperatura Precipitaţii Vânt Presiune Umiditate
    00:00 +7°C° 0.1 mm 1 m/s 741 mmHg 97%
    01:00 +7°C° 0.1 mm 1 m/s 740 mmHg 97%
    02:00 +7°C° 0.3 mm 2 m/s 739 mmHg 98%
    03:00 +8°C° 0.3 mm 2 m/s 738 mmHg 98%
    04:00 +9°C° 0.3 mm 2 m/s 737 mmHg 98%
    05:00 +10°C° 0.8 mm 3 m/s 736 mmHg 97%
    06:00 +12°C° 0.8 mm 4 m/s 735 mmHg 96%
    07:00 +14°C° 0.8 mm 5 m/s 734 mmHg 95%
    08:00 +15°C° 0.3 mm 6 m/s 734 mmHg 94%
    09:00 +16°C° 0.3 mm 6 m/s 733 mmHg 92%
    10:00 +18°C° 0.3 mm 7 m/s 733 mmHg 91%
    11:00 +20°C° 0 mm 7 m/s 733 mmHg 76%
    12:00 +21°C° 0 mm 8 m/s 733 mmHg 61%
    13:00 +22°C° 0 mm 8 m/s 733 mmHg 46%
    14:00 +20°C° 0 mm 8 m/s 733 mmHg 45%
    15:00 +17°C° 0 mm 9 m/s 734 mmHg 43%
    16:00 +15°C° 0 mm 9 m/s 734 mmHg 42%
    17:00 +12°C° 0 mm 7 m/s 736 mmHg 46%
    18:00 +10°C° 0 mm 6 m/s 737 mmHg 51%
    19:00 +7°C° 0 mm 4 m/s 738 mmHg 55%
    20:00 +6°C° 0 mm 4 m/s 738 mmHg 55%
    21:00 +6°C° 0 mm 4 m/s 739 mmHg 56%
    22:00 +5°C° 0 mm 4 m/s 740 mmHg 56%
    23:00 +4°C° 0 mm 4 m/s 740 mmHg 55%

    Poimâine, 25 Februarie, Luni

    Timp Temperatura Precipitaţii Vânt Presiune Umiditate
    00:00 +4°C° 0 mm 4 m/s 740 mmHg 53%
    01:00 +3°C° 0 mm 4 m/s 741 mmHg 52%
    02:00 +3°C° 0 mm 4 m/s 741 mmHg 51%
    03:00 +3°C° 0 mm 4 m/s 741 mmHg 50%
    04:00 +1°C° 0 mm 4 m/s 742 mmHg 49%
    05:00 +1°C° 0 mm 4 m/s 743 mmHg 48%
    06:00 +2°C° 0 mm 3 m/s 744 mmHg 48%
    07:00 +1°C° 0 mm 3 m/s 744 mmHg 47%
    08:00 +3°C° 0 mm 4 m/s 745 mmHg 41%
    09:00 +5°C° 0 mm 5 m/s 746 mmHg 35%
    10:00 +5°C° 0 mm 7 m/s 747 mmHg 29%
    11:00 +8°C° 0 mm 6 m/s 747 mmHg 28%
    12:00 +9°C° 0 mm 6 m/s 747 mmHg 27%
    13:00 +11°C° 0 mm 6 m/s 747 mmHg 26%
    14:00 +12°C° 0 mm 5 m/s 747 mmHg 27%
    15:00 +12°C° 0 mm 5 m/s 747 mmHg 29%
    16:00 +12°C° 0 mm 4 m/s 747 mmHg 30%
    17:00 +10°C° 0 mm 4 m/s 747 mmHg 36%
    18:00 +9°C° 0 mm 3 m/s 748 mmHg 41%
    19:00 +7°C° 0 mm 2 m/s 748 mmHg 46%
    20:00 +6°C° 0 mm 2 m/s 749 mmHg 48%
    21:00 +5°C° 0 mm 2 m/s 749 mmHg 50%
    22:00 +6°C° 0 mm 1 m/s 750 mmHg 51%
    23:00 +5°C° 0 mm 1 m/s 750 mmHg 52%

    26 Februarie, Marţi

    Timp Temperatura Precipitaţii Vânt Presiune Umiditate
    00:00 +5°C° 0 mm 1 m/s 749 mmHg 53%
    01:00 +4°C° 0 mm 1 m/s 749 mmHg 54%
    02:00 +4°C° 0 mm 1 m/s 749 mmHg 55%
    03:00 +2°C° 0 mm 0 m/s 749 mmHg 56%
    04:00 +2°C° 0 mm 0 m/s 749 mmHg 57%
    05:00 +2°C° 0 mm 0 m/s 749 mmHg 58%
    06:00 +1°C° 0 mm 0 m/s 750 mmHg 59%
    07:00 +1°C° 0 mm 0 m/s 750 mmHg 60%
    08:00 +5°C° 0 mm 1 m/s 751 mmHg 56%
    09:00 +7°C° 0 mm 1 m/s 751 mmHg 51%
    10:00 +9°C° 0 mm 1 m/s 751 mmHg 47%
    11:00 +11°C° 0 mm 1 m/s 751 mmHg 45%
    12:00 +12°C° 0 mm 2 m/s 750 mmHg 44%
    13:00 +14°C° 0 mm 2 m/s 750 mmHg 43%
    14:00 +14°C° 0 mm 2 m/s 749 mmHg 43%
    15:00 +15°C° 0 mm 2 m/s 749 mmHg 44%
    16:00 +15°C° 0 mm 2 m/s 748 mmHg 44%
    17:00 +13°C° 0 mm 2 m/s 748 mmHg 51%
    18:00 +12°C° 0 mm 2 m/s 748 mmHg 57%
    19:00 +10°C° 0 mm 1 m/s 748 mmHg 64%
    20:00 +9°C° 0 mm 1 m/s 748 mmHg 65%
    21:00 +8°C° 0 mm 2 m/s 749 mmHg 67%
    22:00 +7°C° 0 mm 2 m/s 749 mmHg 69%
    23:00 +7°C° 0 mm 2 m/s 749 mmHg 72%

    27 Februarie, Miercuri

    Timp Temperatura Precipitaţii Vânt Presiune Umiditate
    00:00 +6°C° 0 mm 2 m/s 748 mmHg 75%
    01:00 +6°C° 0 mm 2 m/s 748 mmHg 77%
    02:00 +5°C° 0 mm 2 m/s 748 mmHg 81%
    03:00 +6°C° 0 mm 1 m/s 748 mmHg 84%
    04:00 +6°C° 0 mm 1 m/s 748 mmHg 88%
    05:00 +5°C° 0 mm 1 m/s 748 mmHg 89%
    06:00 +5°C° 0 mm 1 m/s 748 mmHg 91%
    07:00 +5°C° 0 mm 1 m/s 748 mmHg 92%
    08:00 +7°C° 0 mm 1 m/s 748 mmHg 86%
    09:00 +9°C° 0 mm 1 m/s 748 mmHg 80%
    10:00 +11°C° 0 mm 1 m/s 748 mmHg 74%
    11:00 +11°C° 0.6 mm 1 m/s 747 mmHg 80%
    12:00 +10°C° 0.6 mm 1 m/s 746 mmHg 86%
    13:00 +10°C° 0.6 mm 1 m/s 745 mmHg 92%
    14:00 +11°C° 0.3 mm 1 m/s 744 mmHg 91%
    15:00 +12°C° 0.3 mm 2 m/s 743 mmHg 90%
    16:00 +12°C° 0.3 mm 2 m/s 742 mmHg 90%
    17:00 +12°C° 0.7 mm 2 m/s 742 mmHg 92%
    18:00 +11°C° 0.7 mm 1 m/s 742 mmHg 94%
    19:00 +11°C° 0.7 mm 1 m/s 742 mmHg 97%
    20:00 +11°C° 0 mm 1 m/s 741 mmHg 97%
    21:00 +10°C° 0 mm 2 m/s 741 mmHg 97%
    22:00 +10°C° 0 mm 2 m/s 741 mmHg 98%
    23:00 +10°C° 0 mm 3 m/s 740 mmHg 97%

    28 Februarie, Joi

    Timp Temperatura Precipitaţii Vânt Presiune Umiditate
    00:00 +10°C° 0 mm 3 m/s 740 mmHg 97%
    01:00 +10°C° 0 mm 3 m/s 739 mmHg 96%
    02:00 +9°C° 0 mm 3 m/s 739 mmHg 96%
    03:00 +9°C° 0 mm 2 m/s 738 mmHg 96%
    04:00 +8°C° 0 mm 2 m/s 738 mmHg 97%
    05:00 +8°C° 0 mm 2 m/s 738 mmHg 95%
    06:00 +8°C° 0 mm 2 m/s 738 mmHg 94%
    07:00 +9°C° 0 mm 1 m/s 739 mmHg 93%
    08:00 +10°C° 0 mm 2 m/s 739 mmHg 87%
    09:00 +14°C° 0 mm 2 m/s 739 mmHg 80%
    10:00 +16°C° 0 mm 2 m/s 740 mmHg 73%
    11:00 +17°C° 0 mm 2 m/s 740 mmHg 69%
    12:00 +18°C° 0 mm 2 m/s 739 mmHg 65%
    13:00 +18°C° 0 mm 2 m/s 739 mmHg 60%
    14:00 +18°C° 0 mm 2 m/s 739 mmHg 63%
    15:00 +17°C° 0 mm 2 m/s 739 mmHg 66%
    16:00 +17°C° 0 mm 2 m/s 738 mmHg 68%
    17:00 +16°C° 0.1 mm 2 m/s 738 mmHg 73%
    18:00 +15°C° 0.1 mm 2 m/s 739 mmHg 77%
    19:00 +14°C° 0.1 mm 1 m/s 739 mmHg 81%
    20:00 +14°C° 0.8 mm 2 m/s 739 mmHg 85%
    21:00 +12°C° 0.8 mm 3 m/s 739 mmHg 89%
    22:00 +12°C° 0.8 mm 3 m/s 739 mmHg 92%
    23:00 +11°C° 0.7 mm 3 m/s 739 mmHg 93%
    Arată mai mult